This demonstration page uses our WeatherBlox Daily Observations layout. Learn more.

Left ArrowRight Arrow

40.97296, -117.73568

Hourly Observations for August 12, 2015

Temp ( °F °C ) Dew Point ( °F °C ) Humidity (%) Winds ( mph kmh ) Pressure ( in mb ) Visibility ( mi km ) Precip ( " mm )
12:56 am 00:56 Clear 64 17.8 24 -4.4 22 22 W 7 11 29.85 1011 10 16 0.00 0.00
1:56 am 01:56 Clear 58 14.4 29 -1.7 33 33 E 5 7 29.87 1012 10 16 0.00 0.00
3:56 am 03:56 Clear 50 10 29 -1.7 44 44 VRB 3 6 29.92 1013 10 16 0.00 0.00
4:56 am 04:56 Clear 47 8.3 27 -2.8 46 46 SW 5 7 29.96 1014 10 16 0.00 0.00
5:56 am 05:56 Clear 53 11.7 30 -1.1 41 41 Calm 29.96 1015 10 16 0.00 0.00
6:56 am 06:56 Sunny 56 13.3 30 -1.1 37 37 S 3 6 29.99 1016 10 16 0.00 0.00
7:56 am 07:56 Sunny 67 19.4 31 -0.6 26 26 Calm 30.00 1016 10 16 0.00 0.00
8:56 am 08:56 Sunny 76 24.4 33 0.6 21 21 W 3 6 30.01 1016 10 16 0.00 0.00
9:56 am 09:56 Sunny 78 25.6 32 0 19 19 VRB 3 6 30.02 1017 10 16 0.00 0.00
10:56 am 10:56 Sunny 83 28.3 32 0 16 16 VRB 3 6 30.01 1016 10 16 0.00 0.00
11:56 am 11:56 Sunny with Thunderstorms 89 31.7 31 -0.6 12 12 SW 13 20 29.98 1015 10 16 0.00 0.00
12:56 pm 12:56 Sunny 92 33.3 26 -3.3 9 9 S 15 24 29.96 1015 10 16 0.00 0.00
1:56 pm 13:56 Sunny 92 33.3 28 -2.2 10 10 S 12 19 29.96 1015 10 16 0.00 0.00
2:56 pm 14:56 Sunny 91 32.8 26 -3.3 9 9 VRB 6 9 29.96 1015 10 16 0.00 0.00
3:56 pm 15:56 Sunny 92 33.3 27 -2.8 10 10 VRB 7 11 29.95 1014 10 16 0.00 0.00
4:56 pm 16:56 Sunny 93 33.9 26 -3.3 9 9 VRB 6 9 29.94 1014 10 16 0.00 0.00
5:56 pm 17:56 Sunny 92 33.3 25 -3.9 9 9 W 9 15 29.92 1013 10 16 0.00 0.00
6:56 pm 18:56 Sunny 90 32.2 26 -3.3 10 10 WSW 7 11 29.91 1013 8 13 0.00 0.00
7:56 pm 19:56 Clear 81 27.2 28 -2.2 14 14 WNW 6 9 29.92 1013 10 16 0.00 0.00
8:56 pm 20:56 Clear 74 23.3 30 -1.1 20 20 Calm 29.93 1014 10 16 0.00 0.00
9:56 pm 21:56 Clear 71 21.7 26 -3.3 19 19 WNW 5 7 29.95 1014 10 16 0.00 0.00
10:56 pm 22:56 Clear 68 20 29 -1.7 23 23 NE 3 6 29.96 1014 8 13 0.00 0.00
11:56 pm 23:56 Clear 59 15 28 -2.2 31 31 S 6 9 29.98 1015 10 16 0.00 0.00

Powered by AerisWeather